ニート彗星

240P/NEAT (2018)

English version
Home page
Updated on April 13, 2018

---------------------------------------------------------------------

・ プロフィール

・ 写真集

・ 軌道要素

Epoch 2018 May 2.0 TT = JDT 2458240.5
T 2018 May 15.87878 TT                                  MPCW
q   2.1337778            (2000.0)            P               Q
n   0.12934590     Peri.  352.09912     +0.37930873     -0.84132787
a   3.8722875      Node    74.92642     +0.86923373     +0.18137319
e   0.4489619      Incl.   23.50377     +0.31710820     +0.50918679
P   7.62
From 1981 observations 2002 Oct. 5-2018 Mar. 10, mean residual 0".8.
     Nongravitational parameters A1 = +1.90, A2 = +0.1200.

・ 星図

・ 光度変化

        m1 =  1.0 + 5 logΔ + 30   log r           [    ,-271]  (              〜2017年 8月17日)
        m1 = 10.0 + 5 logΔ +  7.5 log r(t + 400)  [-271,   0]  (2017年 8月17日〜2018年 5月15日)
        m1 =  7.5 + 5 logΔ + 20.0 log r           [   0,    ]  (2018年 5月15日〜              )

        ※ 灰色の曲線は、m1 = 7.5 + 5 logΔ + 20.0 log r の光度曲線です。

---------------------------------------------------------------------

軌道要素はM.P.E.C. 2018-F152に掲載されたものです。
星図はステラナビゲータ Ver.10 (アストロアーツ) で作成したものです。
光度グラフはComet for Windowsで作成したものです。

---------------------------------------------------------------------

Copyright(C) Seiichi Yoshida (comet@aerith.net). All rights reserved.